Regional Weather Roundup
Issued by NWS

Home | Current Version | Previous Version | Graphics & Text | Print | Product List | Glossary On
Versions: 1 2 3 4 5 6 7 8 9 10 11 12 13 14 15 16 17 18 19 20 21 22 23 24 25 26 27 28 29 30 31 32 33 34 35 36 37 38 39 40 41 42 43 44 45 46 47 48 49 50
000
ASUS43 KLOT 271210
RWRIL

ILLINOIS REGIONAL WEATHER ROUNDUP
NATIONAL WEATHER SERVICE CHICAGO/ROMEOVILLE IL
600 AM CST TUE JAN 27 2015

NOTE: "FAIR" INDICATES FEW OR NO CLOUDS BELOW 12,000 FEET WITH NO
SIGNIFICANT WEATHER AND/OR OBSTRUCTIONS TO VISIBILITY.

* THESE STATIONS ARE NOT UNDER NWS QUALITY CONTROL. THEY ALSO MAY NOT
  REPORT WEATHER SUCH AS PRECIPITATION OR FOG.

ILZ001-002-007-009-015-016-024-271300-
NORTHWEST ILLINOIS

CITY           SKY/WX    TMP DP  RH WIND       PRES   REMARKS
MOLINE         CLOUDY    34  28  79 N8        30.04R WCI  27
6HR MIN TEMP:  32; 6HR MAX TEMP:  36;

STERLING*      CLOUDY    28  25  86 NE9       30.05R WCI  20
SAVANNA*       CLOUDY    29  26  88 N6        30.06R WCI  23
$$

ILZ003-004-008-010-011-017-018-271300-
NORTH CENTRAL ILLINOIS

CITY           SKY/WX    TMP DP  RH WIND       PRES   REMARKS
ROCKFORD       CLOUDY    27  23  85 N10       30.06R FOG     WCI  17
6HR MIN TEMP:  25; 6HR MAX TEMP:  27; 6HR PCP: TRACE;

FREEPORT*      CLOUDY    26  24  92 N6        30.07R FOG     WCI  19
ROCHELLE*      CLOUDY    26  25  94 N8        30.04R FOG     WCI  18
DE KALB*       CLOUDY    25  23  93 N7        30.03R FOG     WCI  17
PERU*          CLOUDY    29  28  95 N7        30.04R FOG     WCI  22
$$

ILZ005-006-012>014-019>023-271300-
NORTHEAST ILLINOIS

CITY           SKY/WX    TMP DP  RH WIND       PRES   REMARKS
CHICAGO-OHARE  CLOUDY    27  25  92 N7        30.02R WCI  19
6HR MIN TEMP:  27; 6HR MAX TEMP:  27; 6HR PCP: TRACE;

CHICAGO-MIDWAY CLOUDY    29  25  85 NE7       30.03R FOG     WCI  22
6HR MIN TEMP:  28; 6HR MAX TEMP:  29; 6HR PCP: TRACE;

AURORA         CLOUDY    28  23  81 N6        30.03R HAZE    WCI  22
6HR MIN TEMP:  27; 6HR MAX TEMP:  28; 6HR PCP: TRACE;

LANSING*       CLOUDY    25  23  93 CALM      30.02R
JOLIET*        CLOUDY    27  26  94 N3        30.03R FOG
WAUKEGAN       CLOUDY    27  24  89 NE5       30.03R WCI  22
6HR MIN TEMP:  25; 6HR MAX TEMP:  27;

DUPAGE AIRPORT CLOUDY    27  24  89 N6        30.02R FOG     WCI  20
6HR MIN TEMP:  26; 6HR MAX TEMP:  27; 6HR PCP: TRACE;

KANKAKEE*      CLOUDY    26  26  96 NE5       30.02R FOG     WCI  21
WHEELING       CLOUDY    27  24  89 N7        30.05R FOG     WCI  19
6HR MIN TEMP:  27; 6HR MAX TEMP:  27; 6HR PCP: TRACE;

MORRIS*        CLOUDY    28  28  98 CALM      30.02R FOG
ROMEOVILLE*    CLOUDY    28  27  98 N5        30.02R FOG     WCI  22
NORTHERLY ISL    N/A     27  24  89 NE5         N/A  WCI  22
$$

LMZ740>746-271300-
SOUTHERN LAKE MICHIGAN

STATION/POSITION SKY/WX   TEMP    WIND        PRES    VSBY  WAVE
                          AIR SEA DIR/SP/G                  HT/PER
                          (F)     (DEG/KT/KT) (MB)    (MI)  (FT/S)
WAUKEGAN HARBOR            27      CALM  /  6   N/A
HARRISON CRIB              27      70/  5/  8   N/A
BURNHAM HARBOR             27      80/  5/  7   N/A
CALUMET HARBOR             27      50/  6/  7   N/A
MICHIGAN CITY              23      60/  5/  6   N/A
$$

ILZ025>027-034>036-040-047-049-050-058-095>099-271300-
WEST-CENTRAL ILLINOIS

CITY           SKY/WX    TMP DP  RH WIND       PRES   REMARKS
QUINCY         CLEAR     31  28  89 NW7       30.04R WCI  24
GALESBURG*     CLOUDY    33  32  96 NW3       30.03R
MACOMB*        CLEAR     33  32  96 NW8       30.06R WCI  26
JACKSONVILLE*  MOCLDY    37  33  88 N6        30.04R WCI  32
PITTSFIELD*    CLEAR     34  32  92 NW8       30.05R WCI  27
$$

ILZ028>032-037-038-041>044-048-051>054-059>061-271300-
CENTRAL ILLINOIS

CITY           SKY/WX    TMP DP  RH WIND       PRES   REMARKS
PONTIAC        CLOUDY    31  29  95 N6        30.02R FOG     WCI  25
BLOOMINGTON    CLOUDY    30  29  96 N10       30.01R FOG     WCI  21
DECATUR        MOCLDY    30  29  96 N8        30.01R FOG     WCI  22
PEORIA         CLOUDY    32  27  81 N6        30.03R HAZE    WCI  26
6HR MIN TEMP:  31; 6HR MAX TEMP:  35;

LACON*         CLOUDY    29  27  90 N7        30.03R FOG     WCI  22
LINCOLN*       CLOUDY    32  30  91 N7        30.03R FOG     WCI  26
SPRINGFIELD    PTCLDY    32  29  88 N7        30.02R WCI  26
6HR MIN TEMP:  32; 6HR MAX TEMP:  36;

TAYLORVILLE    MOCLDY    30  30 100 N8        30.02R FOG     WCI  23
$$

ILZ033-039-045-046-055>057-062-063-271300-
EAST-CENTRAL ILLINOIS

CITY           SKY/WX    TMP DP  RH WIND       PRES   REMARKS
CHAMPAIGN      CLOUDY    31  29  92 N12       29.99R WCI  22
DANVILLE*      CLOUDY    28  28  99 NE5       29.97R FOG     WCI  23
RANTOUL*       CLOUDY    32  31  97 N8        29.99R FOG     WCI  25
MATTOON        CLOUDY    31  29  92 N12       29.98R FOG     WCI  22
PARIS*         CLOUDY    29  29 100 CALM      30.00R FOG
$$

ILZ079-100>102-271300-
SOUTHWEST ILLINOIS

CITY           SKY/WX    TMP DP  RH WIND       PRES   REMARKS
BELLEVILLE     CLEAR     32  32  99 NW5       30.01R WCI  27
CAHOKIA*       CLOUDY    38  34  85 NW9       30.03R WCI  31
SPARTA*        MOCLDY    35  32  90 NW3       30.02R
$$

ILZ064>066-069>071-074>076-080>082-084>086-088>090-092>094-271300-
SOUTH-CENTRAL ILLINOIS

CITY           SKY/WX    TMP DP  RH WIND       PRES   REMARKS
CARBONDALE     CLEAR     32  29  88 NW6       30.01R WCI  26
6HR MIN TEMP:  32; 6HR MAX TEMP:  37;

CAIRO*         CLEAR     37  34  88 NW6       30.01R WCI  33
EFFINGHAM*     CLOUDY    33  30  86 NW10      30.01R FOG     WCI  25
MARION         CLEAR     34  32  93 NW5       30.01R WCI  30
MT. VERNON     PTCLDY    32  28  86 N5        29.99R WCI  27
CENTRALIA*     PTCLDY    32  30  92 NW8       30.00R FOG     WCI  25
SALEM*         CLEAR     32  30  92 NW5       30.00R FOG     WCI  27
METROPOLIS*    CLEAR     33  33 100 W5        29.99R WCI  29
$$

ILZ067-068-072-073-078-083-087-091-271300-
SOUTHEAST ILLINOIS

CITY           SKY/WX    TMP DP  RH WIND       PRES   REMARKS
LAWRENCEVILLE  CLOUDY    30  30 100 N5        29.99R FOG     WCI  25
FLORA*         PTCLDY    31  30  96 NW6       29.99R FOG     WCI  25
FAIRFIELD*     CLOUDY    32  30  93 NW3       29.99R
HARRISBURG*    CLEAR     31  31 100 N5        30.00R WCI  26
ROBINSON*      CLOUDY    30  30 100 CALM      29.99R FOG
CARMI*         CLOUDY    34  34 100 NW3       29.98R FOG
$$

ABBREVIATIONS USED IN REMARKS
   TC - TEMPERATURE IN CELSIUS
  WCI - WIND CHILL INDEX
   HX - HEAT INDEX
  VSB - VISIBILITY
$$




USA.gov is the U.S. government's official web portal to all federal, state and local government web resources and services.